Wind_Speed
25 25 25 24 23 21 19 19 19 19 20 19 19 18 17 17 16 14 13 14 16 18 19 20 20 21 21 21 21 20 21 22 22 22 23 24 25 26 27 28 28 29 31 32 32 33 34 35 35 37 38 38 39 41 42 42 43 44 45 45 45 44 43
27 27 26 26 25 22 21 20 21 22 21 21 21 20 19 19 19 17 15 16 17 19 21 22 22 23 23 23 23 22 22 23 23 24 25 26 27 28 28 29 30 31 32 33 34 35 36 36 37 38 39 40 41 42 44 44 45 46 46 46 46 45 43
29 29 29 28 26 24 23 23 24 24 23 23 22 21 20 20 21 20 19 17 18 20 22 23 24 25 25 25 25 24 24 25 25 26 27 28 29 30 30 31 32 32 33 34 35 36 37 38 39 39 40 41 43 44 45 46 46 47 47 47 46 45 43
31 31 30 29 28 27 26 26 27 27 26 25 24 23 22 22 22 23 22 20 20 21 23 25 26 27 27 27 27 26 27 27 27 28 29 30 31 31 32 33 34 34 35 36 37 38 39 40 41 41 42 43 44 45 46 47 48 48 48 48 47 45 43
33 32 31 30 30 29 28 28 29 29 28 27 27 26 26 25 25 25 24 23 22 23 25 27 28 28 28 29 29 28 29 29 29 30 31 32 33 33 34 34 35 36 37 38 38 39 40 41 42 43 44 45 45 47 47 48 49 49 49 49 47 46 44
36 34 33 33 32 31 30 30 30 30 29 29 29 29 29 29 29 28 27 25 24 24 26 28 29 30 31 31 31 30 31 32 32 32 33 34 35 35 36 36 37 38 39 40 41 41 42 42 43 44 46 46 47 48 49 49 50 50 51 50 49 47 45
38 36 36 36 35 34 33 32 31 31 31 31 31 31 32 32 31 30 29 27 26 26 28 29 31 32 33 33 33 33 33 34 35 35 36 36 37 37 37 38 39 40 40 41 43 43 44 45 45 46 47 48 49 50 50 51 51 52 52 51 50 49 46
39 39 40 40 39 36 35 34 34 34 34 34 34 33 34 33 33 32 31 30 29 28 29 31 32 34 35 36 36 36 36 36 37 38 38 39 39 39 39 40 41 42 42 43 44 45 46 47 47 48 48 49 50 51 52 52 52 53 52 52 51 50 48
42 42 44 45 42 37 36 37 36 36 35 35 36 36 35 34 34 33 32 32 32 32 32 32 34 36 38 38 39 39 39 39 39 40 40 41 41 41 41 41 42 44 44 45 46 47 48 49 49 50 50 51 51 52 53 53 53 53 53 53 51 49 48
45 46 47 48 45 38 38 40 39 37 38 38 39 38 37 35 34 34 34 35 36 35 35 35 37 39 40 41 41 41 42 42 42 42 42 43 43 42 43 43 44 45 47 47 48 49 49 50 51 51 51 52 52 53 54 54 54 54 54 53 51 50 49
48 49 49 49 47 44 43 43 41 40 41 41 41 41 40 38 36 37 37 38 38 38 38 39 40 42 42 43 44 44 44 45 45 45 45 45 45 44 45 45 46 47 48 49 50 51 51 52 52 53 53 53 53 54 54 55 54 55 55 53 51 50 49
51 51 50 49 49 49 49 48 45 43 43 44 43 42 43 41 40 40 41 41 42 41 41 42 43 45 45 45 46 46 47 48 48 47 47 47 46 46 47 48 48 48 49 50 52 53 54 54 53 54 53 53 54 55 55 55 55 54 55 54 52 50 50
54 54 52 50 51 52 52 51 49 46 46 46 46 45 45 45 44 44 44 44 44 44 43 44 46 47 47 47 48 49 50 50 50 50 49 49 48 48 49 50 51 51 50 51 53 55 56 56 55 55 54 54 54 55 56 57 56 55 56 56 54 51 52
57 56 54 52 53 54 54 51 49 48 47 47 47 47 46 47 48 47 47 46 46 46 46 47 48 49 50 50 51 52 52 53 52 52 51 50 50 50 51 52 53 53 52 52 54 56 58 58 57 56 56 55 55 56 57 57 57 56 56 57 56 54 54
60 59 57 55 55 57 56 52 49 50 50 49 48 48 48 49 50 49 48 48 49 49 49 50 51 52 53 53 53 54 55 55 54 53 52 52 52 52 53 54 55 56 56 55 55 57 58 59 59 58 57 56 55 56 57 57 56 55 55 57 57 56 55
64 62 59 57 57 58 58 55 52 52 53 52 51 50 50 51 51 51 50 50 51 52 53 53 53 54 56 56 56 56 57 57 56 55 54 54 54 54 55 55 57 58 58 57 58 59 60 61 61 60 59 57 56 57 58 57 55 54 55 56 57 56 56
68 66 62 60 60 60 59 58 56 54 55 55 54 53 52 53 55 55 54 54 54 55 55 56 56 57 59 59 59 59 59 59 57 56 56 56 56 56 57 57 58 59 58 59 62 62 62 63 63 63 62 61 59 59 59 58 57 56 56 57 57 57 58
71 69 67 64 63 62 61 60 59 57 56 57 57 56 56 57 59 59 58 57 57 57 57 59 60 60 60 61 62 62 61 61 59 58 58 58 59 59 59 59 60 60 60 62 64 64 64 64 64 65 65 64 63 63 62 62 60 58 58 58 57 58 59
74 71 70 68 66 65 63 62 61 59 58 59 60 59 58 58 58 58 58 59 59 59 59 60 60 61 62 63 64 63 63 63 61 61 60 60 61 62 62 62 62 62 63 64 65 65 66 66 66 66 66 66 66 65 65 64 62 60 60 58 57 59 58
75 73 72 71 70 68 67 65 64 62 61 61 61 60 59 57 57 57 58 60 60 60 61 61 61 62 64 64 64 64 65 65 64 63 63 62 63 64 64 64 64 65 65 66 66 67 68 68 68 67 67 66 66 66 66 66 64 62 61 58 58 58 53
77 75 73 73 73 73 71 70 68 66 65 65 64 63 61 60 61 60 60 61 61 62 62 62 63 64 65 66 66 67 68 67 66 65 64 64 64 65 66 67 67 67 67 68 68 69 70 70 69 69 68 67 67 66 66 66 65 63 61 59 56 53 49
79 78 77 76 77 77 77 74 72 71 70 69 68 66 64 63 63 62 62 63 63 63 63 64 65 66 68 69 70 70 70 69 68 66 65 65 65 66 68 69 68 68 68 69 70 71 71 72 72 71 70 69 68 67 66 67 66 64 62 58 53 48 50
83 82 82 81 82 82 81 78 75 74 73 71 69 67 66 65 65 64 64 64 64 64 65 66 66 67 70 71 71 71 71 71 70 68 67 66 66 67 69 69 69 70 70 71 72 73 74 74 74 73 72 71 70 68 68 68 67 65 62 59 55 53 56
88 87 86 86 85 85 82 79 76 76 75 73 71 70 69 68 68 67 66 66 66 67 67 67 67 68 71 73 74 74 74 73 72 71 70 68 68 68 69 70 72 73 74 74 75 76 77 77 77 76 76 74 72 70 69 68 67 66 64 62 61 60 61
90 91 91 89 87 85 83 80 78 76 75 75 73 72 72 71 70 69 68 69 69 69 69 70 70 70 72 75 76 77 76 76 75 74 72 71 70 70 70 71 74 75 75 75 77 78 79 79 78 78 77 76 74 72 70 68 67 66 65 64 65 65 65
86 89 91 91 88 87 86 83 79 75 75 76 75 74 75 75 72 70 69 70 71 71 72 73 73 73 75 77 79 80 79 78 77 76 74 73 72 72 72 73 75 75 75 76 77 78 79 78 78 77 77 76 75 73 71 69 68 67 67 67 67 68 68
81 84 87 89 90 90 90 87 81 76 76 77 77 76 76 77 74 71 71 73 73 73 74 75 76 76 77 79 81 82 82 81 80 78 76 75 74 74 74 75 76 76 76 77 78 78 77 76 76 76 77 76 74 72 71 70 69 69 68 69 70 70 71
75 78 81 85 88 90 91 88 84 81 80 78 78 77 77 79 77 73 73 76 77 77 77 77 78 79 79 81 83 85 85 84 82 79 78 77 77 76 76 77 77 77 77 77 77 76 75 75 75 75 75 75 73 71 70 70 69 69 69 70 71 72 72
70 73 75 79 83 86 88 88 87 86 84 80 78 78 78 79 80 79 79 79 80 81 81 80 81 82 82 84 85 87 88 86 83 80 79 78 78 77 77 77 77 77 77 76 75 74 73 74 75 75 74 73 71 70 70 69 69 69 70 71 72 72 72
67 69 71 73 77 79 80 82 85 87 85 81 79 78 77 80 84 85 83 83 83 83 83 83 85 86 86 86 88 89 89 86 82 81 80 78 77 77 77 76 75 76 76 74 72 72 73 74 74 73 72 71 70 69 69 68 68 69 71 71 72 72 72
62 64 66 69 72 74 74 75 78 81 82 80 77 74 72 76 81 82 81 81 83 85 85 85 86 86 86 88 89 88 86 84 82 81 80 78 77 76 75 74 75 75 74 72 72 73 74 73 72 71 70 69 69 69 68 68 69 70 71 71 72 71 71
55 57 61 64 66 68 69 69 70 72 74 75 76 74 68 67 72 78 80 81 81 82 83 83 84 87 89 90 89 87 86 84 82 79 78 77 76 75 74 74 74 73 72 72 73 73 72 71 70 69 68 68 68 67 67 68 69 71 71 71 70 70 70
46 49 54 57 59 60 61 60 61 62 63 66 71 73 70 67 68 73 76 77 79 81 83 85 87 89 92 93 91 89 87 84 81 79 78 78 77 76 74 73 72 71 72 72 72 71 70 69 68 68 67 67 67 66 66 68 70 70 70 69 68 68 70
40 43 44 46 48 50 51 51 52 54 56 58 62 65 67 66 66 68 71 76 80 82 83 84 84 85 87 89 88 87 85 83 80 78 77 77 76 74 72 70 69 70 70 70 69 69 69 69 68 68 67 66 66 66 66 67 69 69 68 67 67 69 71
37 37 36 36 38 40 40 42 45 47 48 51 54 54 54 53 54 59 67 73 74 75 76 77 77 79 80 78 74 73 75 76 76 76 75 75 72 69 67 67 68 69 69 69 69 69 69 68 68 68 67 66 67 67 67 68 68 68 66 66 67 70 71
35 33 32 31 30 28 25 27 34 39 41 44 45 43 43 43 46 53 62 69 72 74 74 73 73 73 72 67 61 58 60 64 66 68 69 68 66 64 65 67 68 69 69 69 69 69 68 68 67 66 67 68 68 68 69 68 67 66 66 68 70 72 72
33 30 28 25 21 16 15 20 28 33 36 37 35 35 39 45 50 55 60 66 72 74 72 71 71 66 60 57 55 54 56 58 61 62 63 63 64 65 66 67 67 67 67 67 67 68 67 66 66 67 68 69 69 68 67 66 65 66 69 71 72 74 75
32 29 27 25 20 15 16 24 31 31 31 32 32 37 46 52 55 61 66 68 72 72 66 66 67 61 54 53 56 57 57 56 56 57 58 59 61 63 63 64 65 66 66 66 66 66 66 65 66 67 68 68 67 66 64 64 66 69 71 73 74 76 79
Wind_Direction
233 234 237 238 239 239 238 236 236 236 233 231 233 237 243 247 247 245 247 257 269 276 283 287 290 293 295 297 301 307 309 310 314 317 318 318 319 321 323 325 328 328 328 329 329 330 331 332 333 333 334 334 335 335 335 336 337 338 337 337 336 334 332
235 237 239 240 239 239 239 238 237 239 238 234 236 240 247 253 256 256 253 257 267 276 281 285 288 292 294 296 301 305 307 309 313 315 315 315 316 319 321 323 325 325 326 327 327 328 329 330 331 332 333 333 333 334 334 335 336 336 337 336 335 334 332
235 237 238 239 239 238 239 240 239 240 238 235 237 243 250 255 259 263 263 262 267 274 278 283 286 290 293 296 300 303 305 307 310 312 312 313 314 317 319 321 322 322 324 325 325 326 327 328 329 330 331 331 332 332 333 334 334 335 336 335 334 333 331
234 237 239 239 239 239 239 241 241 241 239 237 239 243 249 254 259 265 268 268 268 272 277 281 285 289 292 295 297 300 303 305 308 309 309 311 312 315 317 319 319 320 321 322 323 324 325 326 327 329 330 330 330 331 332 333 333 334 334 334 333 332 330
236 236 240 240 240 240 240 241 242 243 242 241 242 245 249 252 257 263 268 270 270 272 276 279 283 287 290 292 294 298 301 303 305 306 307 309 310 312 315 316 317 319 319 319 321 322 323 325 326 327 328 329 329 330 331 332 332 332 332 332 331 330 329
239 237 238 239 240 241 242 242 243 244 245 244 244 246 248 251 255 261 266 269 270 271 274 278 282 285 287 289 292 296 298 301 303 304 305 306 308 311 312 314 315 316 317 317 319 320 322 323 324 326 327 328 329 329 330 331 331 332 332 331 330 329 327
241 241 240 240 240 241 243 244 245 245 246 246 245 246 248 251 255 259 263 267 269 270 272 276 280 282 285 288 290 293 295 298 299 301 303 304 306 308 310 312 313 314 314 316 317 319 321 322 323 324 326 327 328 328 329 330 330 331 331 330 329 329 326
240 242 244 243 240 239 242 244 246 246 247 249 250 251 253 255 257 259 261 265 268 270 272 275 278 281 284 286 289 291 293 295 297 299 300 302 304 306 308 310 311 311 313 314 316 318 319 320 321 323 325 326 327 327 327 329 329 330 330 329 328 327 324
238 240 243 246 243 239 242 245 247 248 250 251 253 255 256 258 259 259 261 264 267 270 273 275 278 280 282 285 288 289 290 292 294 296 298 300 302 304 306 308 309 310 312 313 315 316 318 319 320 322 324 325 325 325 326 327 329 329 329 328 327 324 322
239 239 242 247 249 245 243 245 247 249 251 252 254 256 257 258 259 260 262 264 265 269 272 273 276 279 281 284 286 287 288 289 292 294 296 298 300 302 305 306 308 309 311 312 314 315 316 317 319 321 322 323 323 324 325 326 328 328 328 327 325 321 320
239 240 241 245 250 251 248 247 247 247 249 251 253 256 259 259 260 261 263 263 264 267 270 271 275 278 280 282 284 285 286 287 290 292 294 296 299 301 303 305 307 308 310 312 313 314 315 316 318 319 320 321 322 322 323 325 326 328 327 325 322 321 320
240 241 241 242 246 249 249 249 249 247 248 250 252 255 258 260 260 261 262 263 264 266 269 272 274 277 278 280 282 283 284 286 288 291 293 296 298 301 302 304 306 307 309 311 312 312 313 315 316 317 319 320 320 321 322 323 325 327 326 322 321 321 319
241 242 243 242 244 247 248 249 250 250 249 251 253 254 256 258 260 261 262 264 265 267 269 271 274 275 276 278 281 282 283 285 287 290 292 295 298 300 302 303 305 306 308 310 311 311 312 313 315 316 317 318 319 319 321 322 325 327 324 321 321 321 319
242 243 244 244 244 246 247 248 250 252 252 253 253 254 257 259 260 262 264 266 268 270 271 272 274 275 277 279 280 281 283 284 287 289 292 295 297 299 301 303 304 305 306 308 310 310 311 312 313 314 315 316 317 318 320 322 324 326 323 320 320 321 320
243 243 243 245 246 248 249 249 249 252 254 255 254 256 259 261 261 263 265 268 270 271 272 273 275 276 277 279 280 281 282 284 286 289 292 295 297 299 301 303 304 305 305 307 309 310 310 310 311 312 313 314 316 317 319 321 322 323 321 319 319 320 320
244 244 243 245 247 249 250 251 251 252 254 256 256 257 260 261 263 264 266 268 269 271 272 273 275 276 277 278 279 281 282 284 286 289 292 295 298 299 301 302 303 304 304 305 308 309 309 309 310 311 312 314 316 316 317 318 319 320 320 319 318 318 317
246 246 245 245 246 248 249 251 252 253 255 257 258 259 260 262 264 266 267 268 269 270 272 273 275 276 277 279 280 281 283 285 287 290 293 296 298 300 300 301 302 303 303 304 307 309 308 308 309 310 312 314 315 316 316 317 318 319 319 319 317 317 317
247 248 247 246 246 247 248 250 252 253 254 256 257 259 261 262 263 264 266 267 269 271 273 274 275 276 278 280 282 283 284 286 288 291 294 296 298 299 300 300 301 302 303 303 306 307 307 307 309 310 312 313 314 315 316 317 318 319 319 318 317 317 318
246 247 249 249 248 248 249 250 252 253 253 254 256 258 258 259 260 263 266 268 270 273 274 275 276 278 280 281 282 284 286 287 289 292 294 296 297 298 299 300 300 302 302 303 304 305 305 306 308 309 311 312 314 314 315 316 317 317 317 317 317 318 319
247 247 248 250 251 250 250 250 251 252 253 254 255 255 255 258 262 264 267 269 271 273 274 275 277 279 281 282 283 285 287 288 290 292 293 295 296 297 298 299 300 300 301 302 302 303 304 305 307 308 309 310 311 312 313 314 314 315 315 316 317 318 318
248 248 247 248 250 251 251 251 250 251 251 252 253 253 255 260 263 264 266 268 270 271 272 274 277 279 280 281 283 285 286 287 288 290 292 293 295 296 297 298 298 299 299 300 301 301 302 304 305 306 307 308 308 310 311 312 312 312 313 315 318 319 314
246 247 247 246 247 248 249 249 250 250 250 251 252 253 256 259 260 262 264 266 267 269 271 273 275 277 278 280 282 283 284 285 286 288 289 291 293 294 295 296 297 297 298 299 300 300 302 303 303 304 305 306 307 309 311 311 311 311 312 314 317 314 306
244 245 246 246 246 246 247 249 250 251 252 253 253 255 256 257 258 260 262 264 266 268 269 271 273 275 277 279 280 281 282 283 284 286 287 289 290 292 293 294 294 295 297 299 299 300 301 302 303 303 304 306 307 309 310 310 310 310 311 312 312 308 304
243 243 244 244 245 247 248 250 250 252 253 255 255 256 257 258 260 262 263 264 266 267 269 271 273 275 276 278 279 280 281 282 283 284 286 287 289 290 290 291 292 294 296 298 299 299 300 301 302 304 305 306 308 310 311 311 310 310 311 312 311 310 309
245 245 246 245 246 248 250 250 251 252 254 256 258 259 260 261 261 262 264 265 267 268 270 272 273 274 275 276 278 279 279 280 282 283 285 286 287 288 289 290 291 293 296 297 298 299 300 301 303 304 306 307 308 310 311 311 310 310 311 312 311 311 311
247 248 249 249 249 250 251 251 251 252 255 257 258 260 261 262 263 263 265 266 267 269 270 271 272 273 274 275 276 277 278 279 280 282 284 285 286 287 289 290 291 293 295 296 297 298 299 301 303 305 306 307 309 311 311 310 309 310 311 311 311 311 311
247 247 249 250 250 250 251 251 252 252 253 254 256 257 260 262 263 264 265 266 267 268 269 270 271 272 273 273 274 275 276 277 279 281 283 284 285 287 289 289 290 292 293 294 295 297 299 301 302 303 304 306 308 310 310 309 309 310 311 311 310 311 312
247 247 248 249 249 250 251 251 251 251 251 252 254 256 258 261 262 263 264 266 267 268 268 269 270 271 271 271 272 273 275 276 278 280 282 283 285 287 287 288 290 291 292 293 295 296 298 300 300 302 303 306 308 308 307 307 309 310 310 310 310 311 312
248 248 249 249 250 250 251 251 252 251 251 251 253 256 258 261 263 264 264 264 266 267 268 268 269 269 269 270 271 273 274 276 278 280 281 282 284 285 286 288 289 290 291 293 295 296 297 298 299 301 303 305 306 306 306 307 308 308 308 309 310 310 310
249 250 250 250 251 250 250 250 251 252 253 253 254 257 261 263 264 263 263 263 265 266 267 268 268 268 269 270 270 271 273 275 278 279 280 281 283 284 286 287 288 289 291 292 293 294 295 297 299 301 303 303 304 304 305 306 306 306 306 307 308 309 309
251 251 250 250 251 252 252 251 251 252 253 254 254 255 258 261 263 264 265 266 267 267 268 267 267 267 267 268 268 270 272 275 276 278 280 281 282 283 284 285 286 288 289 290 291 292 294 297 299 300 301 302 303 303 304 304 304 304 305 306 307 308 309
252 253 253 252 253 254 255 254 254 254 254 254 253 250 250 255 262 266 267 267 266 266 265 265 265 265 265 267 268 270 272 274 275 277 279 279 280 281 283 284 286 287 288 288 290 292 295 297 298 299 300 301 301 301 302 302 302 302 304 305 306 308 309
253 253 255 256 256 256 256 255 255 255 254 254 253 252 249 249 255 262 267 268 268 268 267 265 264 264 265 266 268 269 271 272 274 275 276 277 279 280 282 284 285 285 286 288 291 293 295 296 296 297 298 298 299 299 299 299 300 301 303 304 306 307 308
252 254 255 257 256 255 255 254 252 252 252 252 253 254 253 251 252 259 268 272 272 270 269 267 266 266 266 267 269 270 271 271 272 273 274 276 278 280 282 283 284 285 287 290 292 293 293 294 294 295 296 296 296 297 297 298 299 300 302 304 305 306 307
250 253 253 253 252 251 250 250 249 250 251 252 254 255 257 256 255 258 264 268 268 267 266 266 266 266 267 269 273 274 272 271 271 272 274 275 277 279 280 282 283 286 288 290 291 291 291 292 293 294 294 294 295 296 296 297 298 299 301 303 305 306 308
246 250 249 247 246 246 247 249 250 248 249 251 254 256 259 259 255 252 255 258 260 259 259 260 262 265 268 271 274 275 272 271 270 271 272 274 276 278 280 282 284 286 288 288 288 288 289 290 291 292 292 293 294 295 295 296 297 299 301 304 306 308 310
240 241 239 234 230 235 254 267 263 254 247 247 250 251 250 249 246 244 245 247 248 251 254 256 259 264 269 270 271 272 272 272 272 272 273 275 277 278 280 281 283 284 284 285 285 286 287 289 290 291 293 293 294 294 295 296 298 301 304 307 309 310 311
232 225 219 218 220 228 242 251 253 250 240 234 235 239 242 242 239 237 237 238 240 245 251 255 256 260 266 268 270 272 274 274 275 276 277 278 278 278 279 280 281 281 282 282 282 284 286 288 290 292 292 292 293 294 295 297 300 303 306 308 309 311 312
Height
10966 10967 10967 10969 10971 10973 10974 10976 10977 10978 10979 10980 10981 10982 10983 10984 10985 10985 10985 10986 10987 10987 10988 10988 10988 10988 10987 10987 10986 10986 10985 10984 10984 10983 10982 10981 10980 10980 10979 10978 10978 10977 10975 10974 10972 10971 10969 10968 10967 10964 10962 10961 10960 10958 10956 10955 10953 10950 10947 10945 10942 10940 10937
10963 10965 10966 10967 10969 10971 10972 10973 10974 10975 10976 10978 10978 10979 10981 10982 10983 10983 10983 10983 10984 10985 10986 10986 10986 10986 10985 10985 10984 10984 10983 10982 10982 10981 10980 10979 10978 10977 10977 10976 10975 10974 10973 10972 10970 10968 10967 10965 10964 10962 10960 10958 10957 10955 10953 10952 10950 10948 10945 10942 10939 10937 10934
10960 10962 10963 10964 10966 10968 10969 10970 10971 10972 10974 10975 10976 10977 10978 10979 10980 10981 10981 10981 10981 10982 10983 10983 10983 10983 10982 10982 10982 10981 10980 10980 10979 10979 10977 10976 10976 10975 10974 10973 10972 10972 10971 10970 10968 10966 10964 10962 10961 10960 10958 10956 10954 10952 10951 10949 10947 10945 10942 10940 10937 10934 10932
10956 10958 10959 10961 10963 10965 10966 10967 10968 10969 10971 10972 10973 10974 10975 10976 10977 10978 10978 10978 10978 10979 10980 10981 10981 10980 10980 10979 10979 10978 10977 10977 10977 10976 10975 10974 10973 10972 10971 10970 10969 10968 10968 10967 10966 10964 10962 10960 10957 10956 10955 10953 10951 10950 10948 10946 10943 10941 10939 10936 10934 10931 10928
10952 10954 10956 10958 10960 10961 10963 10964 10965 10966 10968 10969 10970 10971 10972 10973 10973 10974 10975 10975 10975 10976 10977 10978 10978 10978 10977 10976 10975 10975 10974 10974 10974 10973 10972 10970 10970 10969 10968 10967 10966 10965 10964 10963 10963 10961 10960 10958 10955 10953 10951 10949 10948 10947 10945 10943 10940 10938 10935 10932 10930 10927 10924
10947 10950 10952 10954 10956 10958 10959 10960 10961 10963 10964 10966 10967 10968 10969 10969 10969 10970 10971 10972 10972 10973 10974 10974 10975 10974 10974 10972 10972 10972 10971 10971 10970 10969 10968 10967 10966 10966 10965 10964 10963 10962 10961 10959 10958 10958 10956 10955 10953 10950 10948 10946 10944 10943 10941 10939 10937 10934 10931 10928 10925 10923 10920
10943 10945 10947 10949 10951 10954 10955 10956 10957 10959 10960 10961 10963 10964 10964 10965 10966 10967 10968 10968 10969 10969 10970 10971 10971 10971 10970 10969 10968 10968 10967 10967 10966 10966 10965 10963 10963 10962 10961 10961 10960 10959 10958 10956 10955 10953 10952 10951 10949 10947 10945 10942 10941 10939 10937 10935 10932 10930 10927 10923 10920 10918 10915
10940 10940 10941 10943 10946 10949 10951 10952 10953 10954 10955 10957 10958 10959 10960 10961 10962 10963 10963 10964 10965 10965 10965 10966 10967 10966 10965 10964 10964 10964 10963 10963 10962 10961 10961 10960 10959 10959 10958 10957 10956 10955 10954 10953 10951 10949 10948 10946 10945 10943 10941 10939 10937 10935 10933 10931 10929 10926 10923 10920 10916 10912 10909
10937 10936 10935 10936 10940 10945 10947 10947 10949 10950 10951 10953 10954 10955 10956 10957 10958 10959 10959 10960 10960 10960 10960 10962 10962 10961 10961 10960 10959 10959 10959 10959 10958 10957 10957 10956 10955 10955 10954 10954 10952 10951 10949 10949 10948 10946 10944 10942 10940 10939 10937 10936 10934 10931 10929 10927 10925 10922 10919 10915 10912 10907 10903
10933 10932 10931 10931 10935 10941 10942 10942 10945 10946 10947 10948 10949 10950 10951 10953 10953 10954 10955 10955 10955 10956 10956 10957 10957 10957 10956 10956 10955 10954 10954 10954 10954 10953 10953 10952 10952 10951 10951 10950 10949 10947 10945 10944 10943 10942 10941 10939 10937 10935 10934 10932 10930 10928 10925 10923 10921 10918 10914 10910 10905 10901 10897
10926 10927 10927 10928 10931 10934 10936 10937 10940 10942 10942 10943 10944 10945 10946 10948 10949 10949 10950 10950 10951 10951 10952 10952 10952 10952 10952 10951 10950 10950 10949 10949 10949 10949 10949 10948 10948 10947 10946 10946 10945 10944 10942 10939 10938 10937 10936 10935 10933 10931 10930 10928 10926 10924 10922 10920 10917 10914 10909 10904 10900 10895 10892
10919 10920 10922 10925 10927 10928 10929 10931 10934 10937 10938 10938 10939 10941 10941 10943 10944 10945 10945 10946 10946 10947 10947 10947 10947 10947 10947 10947 10946 10945 10944 10944 10944 10944 10944 10944 10944 10943 10942 10941 10941 10940 10939 10936 10934 10932 10931 10931 10930 10928 10926 10924 10922 10920 10918 10915 10914 10910 10904 10898 10894 10891 10887
10912 10914 10917 10920 10921 10922 10923 10926 10928 10931 10933 10933 10934 10936 10937 10938 10939 10940 10940 10941 10941 10942 10943 10943 10942 10941 10942 10942 10941 10940 10940 10939 10940 10940 10940 10940 10939 10939 10938 10936 10936 10935 10935 10934 10931 10928 10926 10925 10925 10923 10922 10920 10918 10915 10913 10910 10909 10906 10899 10892 10889 10887 10883
10906 10908 10912 10915 10915 10916 10918 10921 10924 10926 10927 10929 10930 10931 10932 10933 10934 10935 10935 10936 10936 10936 10937 10938 10937 10936 10936 10936 10936 10935 10935 10935 10935 10935 10935 10936 10935 10935 10934 10932 10931 10930 10930 10930 10928 10925 10921 10920 10919 10918 10917 10916 10913 10910 10908 10905 10904 10902 10895 10887 10884 10882 10878
10899 10901 10905 10909 10910 10910 10912 10916 10920 10920 10921 10924 10925 10926 10927 10928 10928 10929 10930 10930 10930 10931 10931 10932 10932 10931 10930 10931 10931 10930 10930 10930 10930 10930 10931 10932 10931 10931 10930 10928 10926 10924 10924 10925 10924 10922 10919 10915 10914 10914 10913 10911 10909 10906 10903 10902 10901 10899 10893 10884 10879 10877 10874
10891 10894 10898 10902 10903 10904 10905 10909 10913 10915 10915 10918 10920 10921 10922 10922 10922 10923 10924 10925 10925 10925 10925 10926 10926 10926 10925 10925 10925 10925 10925 10925 10926 10926 10927 10927 10927 10927 10926 10925 10923 10920 10918 10918 10918 10917 10914 10911 10908 10907 10907 10906 10904 10901 10899 10898 10898 10896 10890 10883 10877 10874 10870
10883 10886 10892 10896 10897 10898 10899 10902 10905 10908 10910 10912 10913 10915 10916 10917 10917 10916 10918 10919 10920 10920 10921 10921 10921 10921 10919 10919 10919 10920 10920 10920 10921 10922 10922 10922 10922 10922 10921 10920 10919 10917 10914 10912 10911 10910 10907 10904 10901 10899 10898 10898 10896 10894 10892 10892 10891 10889 10885 10880 10874 10870 10867
10875 10879 10884 10888 10890 10891 10894 10896 10899 10902 10905 10906 10907 10909 10911 10912 10912 10911 10912 10913 10914 10915 10916 10916 10915 10915 10914 10913 10913 10914 10914 10915 10916 10917 10917 10917 10916 10916 10916 10915 10914 10912 10910 10907 10905 10904 10901 10898 10895 10892 10889 10888 10887 10886 10884 10883 10883 10882 10879 10875 10870 10866 10863
10869 10873 10875 10879 10883 10886 10888 10891 10893 10896 10898 10899 10901 10903 10905 10906 10907 10907 10908 10908 10909 10911 10911 10910 10909 10909 10908 10907 10907 10907 10908 10909 10910 10911 10912 10911 10910 10909 10909 10909 10908 10907 10905 10902 10900 10898 10895 10892 10891 10887 10884 10882 10880 10878 10877 10876 10876 10875 10873 10870 10866 10861 10857
10861 10868 10870 10872 10875 10878 10881 10883 10886 10889 10891 10893 10895 10897 10898 10900 10903 10904 10904 10904 10905 10906 10905 10905 10904 10903 10902 10901 10902 10902 10902 10903 10904 10905 10905 10905 10904 10902 10901 10900 10900 10899 10898 10896 10894 10891 10888 10886 10885 10883 10881 10878 10876 10874 10872 10870 10869 10869 10867 10865 10862 10856 10851
10853 10858 10862 10865 10866 10868 10871 10874 10877 10881 10883 10885 10887 10890 10893 10895 10897 10898 10898 10899 10900 10900 10900 10900 10899 10898 10896 10895 10896 10897 10896 10896 10897 10899 10899 10899 10897 10896 10894 10892 10892 10891 10890 10888 10886 10883 10881 10880 10879 10878 10877 10875 10873 10871 10868 10864 10862 10861 10859 10859 10858 10853 10846
10844 10846 10849 10853 10855 10857 10859 10862 10867 10871 10873 10876 10879 10883 10888 10889 10889 10890 10892 10892 10893 10894 10894 10894 10894 10893 10891 10890 10890 10890 10890 10890 10890 10892 10893 10892 10891 10889 10886 10884 10883 10882 10881 10880 10878 10875 10873 10872 10872 10871 10871 10870 10868 10865 10862 10857 10854 10853 10851 10852 10854 10851 10844
10834 10836 10836 10838 10841 10844 10849 10855 10860 10861 10864 10869 10874 10877 10881 10881 10882 10884 10885 10886 10887 10888 10887 10888 10889 10887 10885 10883 10883 10882 10882 10882 10883 10884 10885 10886 10885 10883 10880 10877 10875 10873 10873 10872 10869 10866 10864 10863 10863 10863 10863 10862 10861 10859 10854 10849 10845 10844 10843 10844 10845 10843 10838
10822 10824 10824 10826 10829 10833 10841 10849 10854 10855 10857 10862 10866 10870 10873 10874 10876 10877 10879 10880 10880 10880 10880 10881 10882 10881 10878 10876 10874 10874 10874 10874 10875 10876 10877 10878 10878 10876 10873 10871 10867 10865 10864 10863 10860 10857 10854 10853 10853 10852 10851 10851 10851 10850 10846 10840 10835 10833 10833 10833 10832 10830 10828
10814 10814 10815 10819 10824 10829 10834 10841 10847 10852 10855 10857 10859 10862 10864 10866 10869 10871 10872 10872 10872 10873 10873 10874 10874 10874 10871 10867 10865 10864 10864 10865 10865 10867 10868 10870 10869 10867 10866 10863 10860 10857 10857 10855 10852 10848 10845 10844 10842 10841 10840 10839 10839 10839 10836 10831 10826 10824 10824 10822 10820 10818 10816
10809 10810 10811 10815 10822 10826 10827 10832 10841 10849 10852 10852 10853 10855 10855 10855 10860 10865 10865 10864 10864 10865 10865 10865 10865 10865 10863 10859 10856 10855 10855 10855 10856 10857 10859 10860 10859 10858 10857 10854 10851 10849 10849 10846 10843 10840 10838 10836 10834 10832 10830 10828 10828 10827 10824 10820 10817 10816 10815 10813 10810 10808 10805
10801 10804 10805 10807 10812 10815 10816 10823 10835 10843 10845 10844 10845 10847 10848 10847 10852 10858 10858 10855 10855 10857 10856 10855 10854 10855 10854 10851 10847 10844 10845 10846 10847 10849 10850 10850 10850 10850 10848 10845 10842 10841 10840 10838 10835 10833 10831 10829 10827 10825 10822 10820 10819 10817 10814 10810 10808 10807 10806 10804 10801 10798 10795
10790 10794 10796 10797 10800 10803 10807 10816 10825 10829 10833 10836 10838 10840 10841 10841 10845 10850 10849 10847 10846 10846 10845 10845 10845 10845 10844 10841 10837 10835 10835 10835 10838 10841 10842 10842 10842 10841 10839 10836 10834 10833 10831 10829 10827 10825 10824 10822 10820 10818 10816 10813 10812 10809 10805 10802 10800 10799 10797 10794 10792 10790 10786
10781 10784 10787 10789 10790 10793 10800 10807 10812 10815 10821 10829 10831 10833 10834 10835 10837 10840 10840 10838 10836 10835 10835 10836 10835 10834 10834 10832 10828 10826 10824 10826 10830 10833 10834 10834 10834 10833 10831 10829 10827 10824 10822 10822 10820 10818 10816 10814 10812 10811 10809 10807 10805 10801 10798 10795 10794 10791 10788 10786 10784 10781 10778
10774 10777 10779 10779 10779 10784 10792 10798 10800 10804 10811 10820 10826 10828 10829 10827 10825 10826 10828 10829 10828 10827 10827 10827 10826 10825 10825 10823 10819 10816 10816 10819 10823 10824 10825 10827 10826 10825 10824 10822 10819 10816 10815 10814 10813 10811 10809 10807 10806 10804 10803 10800 10797 10793 10790 10789 10787 10784 10781 10778 10776 10773 10769
10767 10769 10770 10770 10771 10776 10783 10789 10793 10797 10803 10811 10817 10821 10821 10817 10813 10814 10817 10820 10820 10819 10818 10818 10817 10816 10814 10811 10809 10809 10810 10813 10815 10816 10817 10819 10819 10817 10816 10814 10812 10810 10808 10807 10805 10804 10802 10801 10800 10798 10796 10793 10789 10786 10784 10782 10779 10776 10773 10771 10767 10764 10761
10759 10760 10761 10764 10767 10771 10776 10781 10786 10791 10796 10801 10805 10808 10813 10814 10810 10806 10806 10808 10808 10808 10808 10808 10807 10804 10801 10799 10801 10804 10806 10807 10810 10810 10809 10808 10809 10809 10808 10807 10805 10804 10802 10799 10798 10798 10797 10795 10793 10791 10789 10786 10783 10780 10778 10775 10771 10768 10766 10764 10760 10757 10753
10751 10753 10755 10759 10762 10765 10768 10773 10778 10782 10788 10792 10794 10798 10805 10812 10809 10802 10799 10798 10797 10797 10796 10795 10795 10793 10792 10792 10794 10797 10799 10801 10804 10804 10801 10800 10800 10801 10801 10800 10798 10796 10794 10792 10792 10791 10790 10788 10786 10784 10782 10779 10776 10775 10773 10769 10765 10762 10760 10757 10754 10751 10748
10745 10747 10750 10753 10755 10757 10759 10763 10768 10772 10777 10782 10785 10790 10797 10806 10810 10808 10802 10794 10789 10785 10782 10782 10784 10785 10784 10785 10787 10790 10793 10795 10795 10794 10793 10793 10794 10794 10794 10792 10789 10787 10786 10786 10786 10784 10782 10781 10779 10777 10775 10773 10770 10768 10766 10763 10759 10756 10754 10752 10749 10745 10742
10739 10741 10743 10746 10747 10748 10751 10754 10759 10765 10771 10775 10778 10783 10790 10799 10807 10810 10806 10796 10787 10780 10774 10772 10774 10776 10778 10780 10782 10784 10785 10786 10785 10785 10785 10786 10787 10787 10786 10783 10781 10780 10780 10779 10778 10775 10774 10773 10772 10770 10768 10766 10763 10761 10759 10757 10754 10750 10748 10746 10743 10740 10736
10734 10735 10737 10739 10741 10743 10746 10750 10754 10759 10765 10769 10773 10779 10787 10794 10799 10803 10803 10797 10787 10777 10769 10766 10769 10772 10774 10777 10778 10777 10776 10776 10776 10777 10778 10779 10780 10780 10778 10775 10774 10773 10772 10771 10769 10767 10766 10765 10764 10763 10761 10759 10757 10754 10751 10749 10747 10744 10741 10739 10736 10732 10729
10729 10730 10733 10736 10739 10740 10743 10748 10753 10757 10761 10766 10772 10777 10781 10785 10789 10791 10793 10789 10780 10769 10763 10764 10767 10769 10771 10771 10770 10769 10768 10768 10769 10770 10771 10772 10772 10771 10769 10768 10767 10766 10764 10763 10761 10759 10758 10758 10757 10756 10754 10752 10749 10746 10743 10741 10739 10736 10733 10730 10726 10723 10720
10724 10726 10728 10731 10733 10734 10739 10747 10752 10756 10759 10764 10768 10769 10769 10770 10772 10773 10773 10771 10766 10761 10760 10763 10764 10765 10764 10763 10762 10761 10761 10762 10763 10763 10764 10764 10763 10761 10760 10759 10758 10757 10757 10755 10754 10753 10751 10750 10750 10748 10746 10744 10741 10739 10736 10733 10731 10728 10725 10721 10717 10714 10710